Regional Weather Roundup
Issued by NWS

Home | Current Version | Previous Version | Graphics & Text | Print | Product List | Glossary On
Versions: 1 2 3 4 5 6 7 8 9 10 11 12 13 14 15 16 17 18 19 20 21 22 23 24 25 26 27 28 29 30 31 32 33 34 35 36 37 38 39 40 41 42 43 44 45 46 47 48 49 50
000
ASUS43 KTOP 281908
RWRKS

WEATHER ROUNDUP FOR KANSAS
NATIONAL WEATHER SERVICE GOODLAND KS
200 PM CDT SUN AUG 28 2016

NOTE:  "FAIR" INDICATES FEW OR NO CLOUDS BELOW 12,000 FEET WITH NO
SIGNIFICANT WEATHER AND/OR OBSTRUCTIONS TO VISIBILITY.

KSZ001>006-013>018-027>032-041>047-282000-
NORTHWEST KANSAS

CITY           SKY/WX    TMP DP  RH WIND       PRES   REMARKS
GOODLAND       SUNNY     81  56  42 S12G18    30.12F
HAYS           CLOUDY    81  59  47 SW9       30.10F
HILL CITY      CLOUDY    79  64  60 S5        30.11F
RUSSELL        CLOUDY    82  67  60 S8        30.08F
$$

KSZ061>065-074>080-084>089-282000-
SOUTHWEST KANSAS

CITY           SKY/WX    TMP DP  RH WIND       PRES   REMARKS
DODGE CITY     CLOUDY    81  62  52 S9        30.12F
ELKHART          N/A     80  62  54 S14         N/A
GARDEN CITY    CLOUDY    82  62  50 SE14      30.11F
GREAT BEND     CLOUDY    84  64  51 SW7       30.09F
LIBERAL        SUNNY     82  63  51 S12       30.13S
PRATT          MOSUNNY   82  65  57 S8        30.11S
$$

KSZ066>073-081>083-090>101-282000-
SOUTHEAST KANSAS

CITY           SKY/WX    TMP DP  RH WIND       PRES   REMARKS
CHANUTE        MOSUNNY   88  72  58 VRB5      30.11F
COFFEYVILLE    CLOUDY    89  71  55 SW7       30.09F HX  95
HUTCHINSON     MOSUNNY   89  68  49 SE9       30.09F
MEDICINE LODGE   N/A     87  66  49 S9G18     30.07F
NEWTON         MOSUNNY   87  72  60 S10       30.11F
PARSONS        CLOUDY    86  70  58 E5        30.12S
WICHITA INTL   MOSUNNY   89  70  53 S12       30.09F
WICHITA JABRA  MOSUNNY   86  72  62 SE9       30.09F
WICHITA MCCONL MOSUNNY   87  70  56 S12       30.09F
WINFIELD       MOSUNNY   84  71  65 E15       30.11S
$$

KSZ007>012-019>026-033>040-048>060-102>105-282000-
NORTHEAST KANSAS

CITY           SKY/WX    TMP DP  RH WIND       PRES   REMARKS
CONCORDIA      SUNNY     89  70  53 SE12      30.08F
EMPORIA        MOSUNNY   85  71  63 SE8       30.11S
LAWRENCE       MOSUNNY   89  71  55 SE12      30.10F HX  95
MANHATTAN      MOSUNNY   90  71  53 SE8       30.08F HX  96
MARYSVILLE     SUNNY     90  70  51 S6        30.08F HX  95
OLATHE IND     MOSUNNY   88  71  57 SE9       30.12F
OLATHE EXE     MOSUNNY   86  70  58 S8        30.12F
SALINA         SUNNY     90  67  46 S12       30.08F
TOPEKA BILLARD PTSUNNY   89  74  60 SE9       30.09F HX  98
TOPEKA FORBES  MOSUNNY   91  72  53 SE8       30.10F HX  98
$$



USA.gov is the U.S. government's official web portal to all federal, state and local government web resources and services.